Wetbulb
48.37 45.51 42.65 43.77 43.83 43.85 43.50 42.37 41.56 43.65 45.09 47.32 46.95 47.26 48.67 52.41 53.28 53.29 54.25 55.14 55.75 56.41 58.47 59.28 59.46 60.96 59.95 60.48 60.80 61.28 61.67 62.26 61.43 59.99 59.61 59.73 59.86 60.09 59.53 59.71 59.25 59.04 58.15 56.96
45.24 42.61 45.51 45.32 44.48 44.18 43.20 41.59 41.46 43.54 45.16 44.80 43.61 43.87 46.25 50.71 52.92 54.27 54.43 55.14 55.90 57.03 57.46 58.57 59.51 59.68 59.95 59.68 60.60 61.17 61.37 61.81 61.55 61.22 60.35 60.47 60.87 60.47 60.08 56.61 55.69 56.14 57.20 56.16
42.52 44.28 46.33 45.59 44.14 42.72 43.05 41.79 41.46 42.07 43.71 43.18 42.57 41.74 42.60 48.03 51.30 53.06 54.90 56.36 56.80 56.93 57.38 58.36 58.74 59.36 59.89 59.71 59.83 60.91 61.48 61.80 62.07 61.83 60.34 58.97 58.93 58.02 56.98 55.58 55.50 56.06 55.81 54.25
43.93 45.99 44.62 44.32 43.43 43.91 40.05 44.33 43.73 42.78 41.81 38.38 41.86 36.29 40.18 43.55 48.15 50.85 53.06 55.13 56.34 56.98 57.82 59.30 59.70 59.59 60.02 60.52 61.20 61.14 61.51 61.24 61.51 61.21 59.93 58.62 58.98 57.62 57.69 57.33 57.01 55.11 54.62 53.06
43.17 43.82 43.40 42.72 43.65 44.85 42.98 45.24 44.19 43.43 41.53 40.13 39.32 38.45 41.33 42.63 42.90 49.15 52.17 54.51 56.36 57.52 57.92 58.75 60.21 60.94 61.20 61.74 60.94 61.41 61.23 61.20 61.14 60.44 60.64 59.18 59.37 59.61 57.98 57.01 56.07 54.01 52.69 52.11
43.93 46.96 46.34 45.94 46.15 45.59 46.29 44.19 42.21 41.61 40.87 35.70 38.51 38.64 40.48 42.36 44.73 46.17 50.02 54.02 55.77 56.74 56.49 58.38 60.89 61.82 61.68 61.71 61.13 60.84 60.66 60.40 60.85 60.51 59.92 59.11 58.31 56.55 55.53 54.97 53.52 52.24 53.13 51.51
42.34 43.83 46.64 47.76 44.33 45.85 44.46 41.87 35.96 34.02 34.32 33.73 39.47 37.84 42.03 45.83 46.02 47.12 48.34 49.76 54.52 56.67 56.66 56.94 58.63 59.78 60.69 60.01 60.42 60.61 60.42 59.82 60.01 59.72 59.22 58.62 58.31 57.06 56.60 54.99 51.77 50.06 50.94 49.97
37.44 35.40 43.53 47.02 45.48 43.69 42.17 42.38 36.66 29.45 30.74 33.95 38.69 36.20 42.17 47.01 47.82 49.24 49.06 49.02 49.73 53.78 55.48 56.37 58.25 59.34 59.77 59.75 60.29 59.75 59.54 59.77 59.75 59.38 59.51 59.51 58.68 57.96 57.07 55.14 53.06 51.40 51.03 50.63
36.56 37.28 44.72 45.88 47.09 46.34 42.22 39.79 42.65 36.09 34.16 33.94 36.94 40.27 44.78 46.38 48.09 49.22 49.73 49.70 49.31 50.51 53.52 54.80 56.87 58.15 58.99 59.21 59.52 59.53 59.34 59.91 59.47 59.45 59.61 59.46 58.57 58.22 55.18 54.08 53.67 51.61 50.82 47.68
42.45 37.30 43.43 45.40 47.30 46.15 44.03 44.88 38.46 37.53 30.61 29.08 33.70 35.36 38.17 42.86 44.50 47.15 48.76 49.89 51.14 51.83 52.22 53.65 55.26 56.81 58.49 59.22 59.66 60.29 60.47 60.13 60.41 60.16 60.07 59.65 59.57 58.30 56.88 55.53 54.09 52.16 49.70 47.83
42.91 41.48 39.36 44.29 42.74 41.69 41.72 40.48 38.85 39.53 36.36 31.90 30.10 35.32 43.25 43.74 45.14 46.45 48.20 49.59 50.78 52.62 53.50 54.56 56.36 57.38 58.22 59.16 59.39 59.71 60.11 60.26 60.38 60.12 59.90 59.50 58.54 57.72 56.98 54.88 53.75 50.53 48.97 47.41
44.44 41.03 36.04 39.66 43.93 44.97 43.79 42.41 41.27 36.98 33.94 34.23 32.88 35.44 44.22 44.80 44.99 46.00 46.92 49.66 50.94 52.20 54.44 55.41 56.92 58.07 58.21 58.53 59.13 59.29 59.49 59.67 60.22 59.60 57.78 57.64 56.76 54.94 54.43 53.00 52.16 50.77 48.03 46.25
43.92 38.47 34.35 36.31 40.14 43.19 42.03 41.93 40.68 38.65 36.93 34.02 34.62 36.76 43.64 44.70 45.14 45.68 46.45 48.32 51.02 52.22 54.06 55.52 56.50 57.17 58.04 58.55 58.74 58.89 58.99 59.35 59.15 55.98 55.30 54.90 54.29 52.64 52.01 51.11 49.77 47.59 45.89 46.07
45.71 39.65 37.84 34.13 37.51 40.74 38.51 40.12 40.69 40.99 35.71 36.52 35.99 39.57 43.23 45.31 44.95 46.95 46.78 46.55 46.60 51.25 52.28 54.40 55.74 56.64 57.19 57.84 58.50 58.39 57.99 56.75 53.76 52.46 51.58 51.20 50.89 51.04 50.00 48.40 48.01 47.22 46.07 44.19
45.34 38.50 38.43 38.75 39.19 40.24 40.57 40.35 39.41 39.17 40.26 37.85 40.39 37.79 43.12 45.07 45.37 45.42 44.66 46.48 48.31 49.67 50.93 51.64 52.94 54.83 56.32 56.88 57.35 57.28 56.62 54.18 53.05 51.20 50.41 49.09 48.08 47.98 47.71 46.28 44.14 44.15 42.72 41.91
42.88 38.82 38.48 36.99 38.66 39.68 38.95 40.13 39.79 39.45 39.35 39.29 39.31 39.19 44.83 44.98 44.24 43.75 44.09 45.41 45.26 45.44 46.59 48.01 48.88 49.53 49.71 51.76 54.07 53.92 52.23 50.50 50.31 49.37 47.56 46.67 46.52 44.29 41.77 40.70 40.34 40.63 41.03 42.02
40.14 38.20 36.11 34.06 35.71 36.90 33.39 37.81 39.66 40.35 40.94 41.86 37.81 43.73 43.55 42.49 42.77 43.46 43.81 44.26 44.34 44.37 44.19 44.56 45.14 45.35 45.83 47.34 49.33 49.13 48.50 48.22 47.34 46.47 45.74 44.53 42.58 40.69 40.46 40.97 41.06 41.41 41.24 42.34
39.40 37.99 35.28 32.57 31.83 29.07 40.44 41.36 42.04 41.23 41.35 42.09 41.23 42.41 42.65 42.97 42.72 43.27 44.18 44.94 43.20 42.30 41.99 42.05 43.21 43.20 43.35 44.52 45.03 46.07 46.71 45.99 45.31 44.69 43.80 42.55 40.86 40.03 40.62 40.85 41.06 41.16 41.14 40.81
42.01 37.21 32.47 32.62 32.38 35.76 38.29 39.89 40.02 39.15 40.48 42.58 42.46 41.84 41.66 42.45 43.86 41.25 40.56 42.20 41.00 40.21 39.83 39.92 40.70 40.87 41.22 41.47 42.50 42.53 42.19 42.32 41.94 41.12 41.05 41.44 41.83 41.09 41.02 40.71 40.55 41.04 40.73 40.77
37.82 38.56 39.14 30.27 30.92 29.52 39.08 41.77 42.41 42.76 35.49 42.88 42.13 41.22 41.19 42.96 40.49 42.74 40.00 39.39 38.71 39.08 39.50 39.16 39.49 39.89 40.00 39.91 41.44 40.98 40.35 40.64 39.94 40.89 41.42 42.17 42.34 41.67 41.61 41.20 39.70 38.98 39.75 38.95
34.36 33.72 33.66 29.91 33.40 35.51 40.70 41.86 42.97 35.68 39.22 42.70 42.70 42.96 43.48 42.23 42.77 42.32 39.33 38.06 38.51 38.09 37.67 38.71 39.14 38.36 38.90 40.63 41.28 40.08 40.31 39.77 41.41 42.48 42.91 42.37 41.00 40.15 39.34 38.11 38.02 38.50 37.87 37.15
36.30 34.20 32.79 31.82 32.74 32.58 42.28 40.11 38.83 44.36 42.60 43.23 43.60 44.45 43.60 39.71 38.06 38.07 37.68 36.91 36.95 37.04 37.34 38.61 38.00 37.82 39.29 40.78 40.59 39.71 39.45 41.32 41.51 39.61 37.44 37.01 37.32 37.06 37.04 36.97 36.71 36.43 35.99 35.00
36.61 39.52 37.89 38.71 39.18 44.71 43.02 45.71 44.74 43.94 44.41 43.35 44.41 43.96 41.34 38.51 37.69 37.04 35.94 36.28 36.43 36.93 37.15 38.24 37.88 37.62 38.50 39.34 39.68 37.36 37.15 38.06 37.41 36.52 35.73 35.71 35.39 34.87 34.90 34.75 34.62 34.63 34.93 34.05
38.87 40.78 40.33 40.79 42.65 42.68 43.39 44.22 44.50 44.45 44.46 44.12 45.38 44.41 41.75 38.98 37.53 35.95 35.82 35.64 35.54 36.44 36.45 37.10 36.50 35.15 34.55 35.70 35.56 35.22 35.40 35.40 35.52 34.46 34.17 34.40 34.19 34.01 34.20 34.27 33.91 33.34 32.79 31.87
41.00 41.17 39.29 39.29 41.07 42.04 43.88 43.89 44.30 42.43 42.78 41.71 42.02 41.75 40.32 38.30 36.48 36.15 35.22 34.98 35.24 35.23 35.54 35.92 34.51 33.87 33.15 33.29 32.61 33.27 34.28 35.36 33.83 32.90 31.96 31.59 30.91 30.39 30.29 30.16 29.71 28.90 30.07 29.79
41.46 40.35 38.11 38.66 44.27 44.89 45.22 46.10 42.38 41.38 41.16 41.12 39.16 37.90 38.78 38.35 36.46 36.24 34.90 35.02 34.84 34.26 34.62 33.83 33.26 31.43 30.18 29.43 29.63 30.96 31.79 31.76 31.12 29.06 28.19 26.77 27.24 27.06 27.10 26.60 26.60 26.97 26.33 26.46
MSLP
1012.72 1012.86 1012.65 1012.51 1012.32 1012.23 1012.02 1011.85 1011.60 1011.53 1011.66 1011.72 1011.64 1011.90 1012.33 1013.23 1013.92 1014.22 1014.35 1014.62 1014.79 1014.71 1015.27 1016.07 1016.73 1017.11 1017.71 1018.16 1018.56 1018.91 1019.38 1019.82 1020.33 1020.74 1021.30 1021.63 1021.70 1022.33 1022.68 1022.88 1023.17 1023.42 1023.61 1024.04
1012.88 1012.61 1012.24 1012.33 1012.45 1012.41 1012.29 1011.91 1011.78 1011.56 1011.41 1011.58 1011.63 1011.54 1011.90 1012.60 1012.78 1013.14 1013.61 1013.90 1013.85 1014.19 1014.82 1015.28 1015.98 1016.58 1016.99 1017.36 1017.82 1018.35 1018.83 1019.46 1019.87 1020.16 1020.53 1020.95 1021.23 1021.93 1022.16 1022.76 1023.22 1023.38 1023.66 1024.06
1012.41 1012.13 1012.01 1012.27 1012.21 1012.33 1011.98 1011.67 1011.96 1011.80 1011.62 1011.81 1011.76 1011.54 1011.74 1012.22 1012.55 1012.79 1013.03 1013.30 1013.72 1013.88 1014.14 1014.56 1015.17 1015.70 1016.31 1016.64 1017.10 1017.67 1018.31 1018.89 1019.38 1019.92 1020.48 1021.01 1021.39 1021.80 1022.17 1022.66 1023.08 1023.28 1023.62 1024.04
1012.15 1011.80 1011.89 1012.12 1011.89 1011.74 1011.81 1011.39 1011.61 1011.66 1011.76 1011.79 1011.83 1011.76 1011.54 1011.65 1011.92 1012.20 1012.13 1012.44 1012.53 1012.95 1013.49 1013.78 1014.20 1014.73 1015.18 1015.78 1016.53 1017.09 1017.81 1018.47 1019.03 1019.54 1019.75 1020.03 1020.21 1020.80 1021.41 1022.04 1022.60 1023.06 1023.64 1023.93
1011.65 1011.55 1011.71 1011.86 1011.52 1011.55 1011.51 1011.51 1011.68 1011.68 1011.88 1012.17 1012.04 1011.97 1011.16 1011.39 1011.30 1010.85 1010.79 1010.94 1011.27 1011.66 1012.26 1012.62 1013.15 1013.83 1014.42 1015.21 1015.84 1016.58 1017.29 1017.84 1018.31 1018.85 1019.14 1019.60 1019.96 1020.43 1021.21 1021.89 1022.54 1023.14 1023.53 1023.74
1011.31 1011.24 1011.27 1011.17 1011.08 1011.07 1011.22 1011.65 1012.08 1012.32 1012.32 1012.41 1011.97 1011.78 1010.76 1010.43 1009.91 1009.65 1009.71 1010.02 1010.20 1010.76 1011.36 1011.73 1012.39 1013.28 1013.81 1014.70 1015.33 1015.96 1016.67 1017.03 1017.80 1018.39 1018.81 1019.20 1019.65 1020.28 1020.91 1021.63 1022.21 1022.78 1023.13 1023.43
1011.34 1011.12 1010.79 1010.77 1011.08 1011.14 1011.24 1011.71 1012.20 1012.57 1012.71 1012.40 1012.17 1011.82 1010.20 1009.41 1009.37 1009.22 1009.09 1008.95 1009.14 1009.85 1010.64 1011.03 1011.66 1012.31 1013.08 1013.83 1014.58 1015.26 1015.71 1016.22 1017.05 1017.81 1018.28 1018.67 1019.17 1019.73 1020.14 1020.84 1021.54 1022.18 1022.61 1023.02
1011.07 1011.07 1010.54 1010.38 1010.51 1010.60 1011.02 1011.36 1012.01 1012.40 1012.88 1012.63 1012.20 1011.17 1009.56 1009.19 1009.08 1009.04 1009.04 1008.75 1009.12 1009.26 1009.74 1010.23 1010.60 1011.39 1012.12 1012.83 1013.68 1014.43 1015.06 1015.56 1016.38 1017.13 1017.42 1018.04 1018.49 1018.99 1019.45 1020.08 1020.76 1021.36 1021.85 1022.27
1010.73 1010.66 1010.22 1010.13 1010.25 1010.54 1011.09 1011.55 1011.87 1012.58 1013.76 1013.09 1011.96 1010.91 1009.54 1009.13 1008.85 1008.74 1008.58 1008.60 1008.85 1009.20 1009.53 1009.78 1010.34 1010.96 1011.55 1012.18 1012.82 1013.55 1014.30 1014.91 1015.64 1016.16 1016.84 1017.48 1018.04 1018.35 1018.85 1019.46 1020.11 1020.66 1021.26 1021.97
1009.89 1010.36 1010.33 1010.32 1010.40 1010.81 1010.94 1011.38 1012.06 1012.63 1013.13 1012.97 1012.12 1011.15 1009.85 1009.14 1008.96 1008.86 1008.79 1008.69 1008.65 1009.09 1009.73 1010.04 1010.34 1010.73 1011.22 1012.00 1012.80 1013.54 1013.99 1014.34 1014.98 1015.68 1016.20 1016.74 1017.28 1017.83 1018.45 1019.08 1019.52 1020.04 1020.89 1021.40
1009.68 1010.11 1010.85 1010.54 1010.43 1010.34 1011.21 1011.38 1012.02 1012.53 1012.95 1012.79 1012.21 1010.77 1009.43 1008.96 1008.90 1008.95 1009.01 1008.99 1009.16 1009.31 1009.66 1009.97 1010.32 1010.83 1011.26 1011.98 1012.61 1013.15 1013.68 1014.15 1014.66 1015.21 1015.71 1016.22 1016.78 1017.40 1018.01 1018.46 1019.03 1019.79 1020.60 1021.29
1009.36 1009.75 1010.39 1010.12 1010.12 1010.04 1010.16 1010.67 1011.36 1012.24 1013.00 1013.00 1012.32 1010.51 1009.08 1008.86 1008.88 1008.89 1008.90 1009.05 1009.15 1009.42 1009.64 1009.91 1010.19 1010.70 1011.16 1011.66 1012.31 1012.85 1013.52 1013.93 1014.22 1014.81 1015.46 1015.84 1016.44 1017.15 1017.65 1018.14 1018.61 1019.27 1020.06 1020.66
1009.02 1009.62 1010.18 1010.25 1010.57 1010.46 1010.30 1010.58 1011.00 1011.56 1012.19 1012.22 1011.74 1010.18 1009.04 1008.85 1008.78 1008.80 1008.82 1009.00 1009.21 1009.26 1009.57 1009.98 1010.40 1010.86 1011.32 1011.79 1012.32 1012.95 1013.45 1013.71 1014.05 1014.93 1015.44 1016.01 1016.36 1017.02 1017.61 1018.21 1018.79 1019.44 1019.99 1020.64
1007.94 1008.89 1009.36 1009.59 1009.62 1009.69 1010.10 1010.08 1010.49 1010.77 1011.43 1011.14 1010.65 1009.58 1009.01 1008.57 1008.70 1008.55 1008.85 1009.14 1009.36 1009.64 1010.16 1010.58 1010.98 1011.23 1011.68 1011.88 1012.22 1012.86 1013.38 1013.96 1014.55 1015.31 1015.90 1016.34 1016.89 1017.49 1018.06 1018.62 1019.07 1019.64 1020.32 1020.94
1008.03 1008.95 1009.36 1009.22 1009.18 1009.36 1009.23 1009.44 1010.02 1010.33 1010.09 1010.19 1009.44 1009.21 1008.60 1008.45 1008.55 1008.89 1009.24 1009.58 1009.94 1010.42 1010.78 1011.14 1011.45 1011.65 1011.97 1012.18 1012.41 1012.98 1013.57 1014.14 1014.66 1015.23 1015.82 1016.56 1017.20 1017.72 1018.36 1018.97 1019.79 1020.42 1021.00 1021.55
1008.55 1009.16 1009.58 1009.84 1009.69 1009.53 1009.26 1009.02 1009.50 1009.68 1009.63 1009.49 1009.13 1008.68 1008.19 1008.36 1008.86 1009.40 1009.81 1010.25 1010.73 1011.45 1011.76 1012.19 1012.49 1012.74 1012.95 1012.93 1013.02 1013.49 1014.06 1014.73 1015.24 1015.74 1016.39 1017.02 1017.59 1018.31 1019.01 1019.71 1020.33 1021.06 1021.79 1022.39
1009.25 1009.30 1010.16 1010.62 1010.34 1009.93 1009.68 1008.72 1008.66 1008.66 1008.61 1008.37 1008.35 1007.67 1007.97 1008.59 1009.22 1009.98 1010.47 1011.10 1011.73 1012.35 1012.77 1013.15 1013.55 1013.90 1014.20 1014.31 1014.26 1014.59 1014.99 1015.43 1015.89 1016.47 1017.08 1017.77 1018.49 1019.16 1019.91 1020.50 1021.07 1021.71 1022.20 1022.77
1009.14 1009.79 1010.43 1010.94 1010.91 1009.95 1008.17 1008.01 1008.02 1008.06 1007.75 1007.83 1007.86 1007.88 1008.22 1008.85 1010.07 1010.90 1011.43 1011.75 1012.66 1013.38 1013.80 1014.11 1014.39 1014.68 1014.95 1015.20 1015.32 1015.38 1015.62 1016.10 1016.66 1017.27 1017.89 1018.55 1019.18 1019.78 1020.50 1021.14 1021.76 1022.33 1022.59 1022.72
1008.67 1009.73 1010.67 1011.01 1010.52 1009.16 1008.10 1007.80 1007.82 1007.87 1006.82 1006.75 1007.21 1007.79 1008.75 1009.69 1010.67 1012.06 1012.71 1013.09 1013.66 1014.28 1014.74 1015.05 1015.38 1015.71 1015.99 1016.08 1016.14 1016.16 1016.63 1017.16 1017.68 1018.28 1018.78 1019.30 1019.82 1020.47 1021.03 1021.59 1021.97 1022.32 1022.52 1022.54
1009.19 1009.40 1009.81 1010.84 1009.96 1008.68 1007.29 1006.70 1006.93 1007.27 1006.62 1006.33 1006.74 1007.49 1008.78 1010.05 1010.89 1012.02 1013.33 1014.09 1014.60 1015.05 1015.45 1015.76 1016.25 1016.54 1016.60 1016.94 1017.03 1017.15 1017.73 1018.22 1018.70 1019.15 1019.60 1020.09 1020.54 1021.07 1021.38 1021.71 1022.04 1022.31 1022.35 1022.44
1009.47 1009.82 1009.81 1009.95 1009.07 1007.76 1006.64 1006.60 1006.97 1007.43 1006.25 1006.02 1006.66 1007.36 1008.51 1009.69 1010.62 1011.67 1013.55 1014.60 1015.16 1015.73 1016.17 1016.50 1016.65 1016.88 1017.43 1017.78 1017.80 1018.00 1018.64 1019.12 1019.68 1020.04 1020.46 1020.91 1021.23 1021.46 1021.75 1022.04 1022.26 1022.31 1022.39 1022.48
1008.04 1008.94 1009.30 1009.14 1008.45 1007.16 1006.11 1006.98 1006.67 1005.47 1005.91 1006.21 1006.88 1007.56 1008.76 1010.16 1011.65 1012.75 1014.06 1015.02 1015.77 1016.23 1016.60 1016.75 1016.97 1017.64 1018.26 1018.44 1018.48 1019.08 1019.67 1020.27 1020.52 1020.83 1021.18 1021.50 1021.78 1022.02 1022.20 1022.32 1022.42 1022.50 1022.51 1022.47
1007.57 1006.62 1006.87 1006.91 1005.94 1005.28 1005.09 1004.61 1004.87 1005.26 1005.75 1006.44 1006.96 1007.93 1009.11 1010.62 1012.12 1013.40 1014.49 1015.46 1016.08 1016.45 1016.88 1017.36 1017.63 1018.24 1018.97 1019.39 1019.65 1019.98 1020.64 1020.88 1021.16 1021.43 1021.82 1022.18 1022.39 1022.54 1022.65 1022.57 1022.57 1022.50 1022.50 1022.53
1006.61 1006.10 1006.16 1006.34 1005.13 1004.89 1004.81 1005.06 1005.33 1005.62 1005.98 1006.45 1007.04 1007.91 1009.22 1010.65 1012.42 1013.66 1014.79 1015.67 1016.29 1016.92 1017.40 1017.89 1018.34 1019.11 1019.96 1020.55 1020.85 1021.09 1021.36 1021.58 1021.72 1022.10 1022.51 1022.73 1022.80 1022.88 1022.99 1022.97 1022.98 1022.89 1022.94 1022.91
1005.47 1005.70 1005.69 1005.32 1004.92 1005.30 1005.17 1005.11 1005.31 1006.00 1006.62 1007.16 1007.83 1008.64 1009.55 1010.91 1012.70 1013.79 1014.97 1015.86 1016.64 1017.35 1018.03 1018.60 1019.28 1020.13 1020.98 1021.54 1021.85 1022.18 1022.21 1022.28 1022.48 1022.81 1023.07 1023.20 1023.32 1023.36 1023.27 1023.36 1023.54 1023.61 1023.70 1023.86
1004.76 1004.55 1005.09 1003.83 1003.40 1003.83 1003.77 1003.90 1005.21 1006.04 1006.62 1007.23 1007.84 1009.48 1010.55 1011.05 1012.20 1013.75 1015.14 1016.22 1017.09 1017.96 1018.72 1019.46 1020.30 1021.11 1021.94 1022.43 1022.74 1023.02 1023.12 1023.13 1023.14 1023.41 1023.69 1023.99 1023.92 1023.93 1023.92 1023.90 1023.92 1024.31 1024.51 1024.27
Wind_Speed
2 2 5 6 5 3 2 2 2 1 2 5 6 8 8 12 9 10 12 12 12 13 11 13 15 16 16 15 14 15 13 12 10 7 7 6 7 6 5 5 7 9 8 10
1 4 4 2 2 3 2 2 2 2 1 1 3 6 5 13 11 15 15 13 15 12 11 13 14 16 17 17 16 15 15 14 11 8 7 5 7 6 5 4 4 5 9 10
5 3 5 3 3 4 4 5 2 2 2 1 2 4 2 4 9 11 13 13 12 15 15 13 15 17 15 17 18 16 16 15 12 12 8 5 6 3 4 5 6 7 9 10
4 2 4 4 4 6 4 5 4 1 0 2 2 2 4 5 11 13 16 15 17 16 15 15 17 18 18 16 14 16 14 14 13 15 12 12 10 9 8 7 7 7 10 10
4 4 3 5 6 5 5 3 2 2 2 1 1 2 1 1 8 18 20 19 19 19 18 19 19 18 16 16 15 14 14 14 14 14 13 12 12 8 6 5 9 8 8 10
4 1 4 5 3 5 3 3 4 3 3 2 2 4 3 5 6 6 14 18 20 18 16 18 16 14 15 13 13 14 16 15 15 15 15 16 15 11 7 8 8 7 8 8
0 3 2 3 3 1 3 3 2 1 2 3 4 2 7 5 7 7 9 14 18 16 16 17 18 17 15 17 16 14 17 16 16 16 15 15 15 14 13 11 8 9 9 8
6 3 8 5 5 6 6 6 4 4 3 2 1 4 3 3 7 8 8 11 6 13 14 18 19 17 17 17 17 16 16 16 16 15 17 15 16 9 8 10 8 8 9 9
5 4 1 2 2 3 4 4 2 7 2 1 1 4 9 1 4 5 8 5 3 7 11 15 14 16 16 15 17 17 16 16 14 16 14 14 13 12 10 11 10 8 8 8
7 2 2 2 3 3 2 6 3 2 3 3 2 3 4 3 2 5 6 5 6 2 5 8 12 14 13 12 12 14 14 15 13 14 13 12 13 12 10 10 13 13 11 12
5 3 2 2 5 8 4 2 4 3 2 2 2 4 6 5 2 4 4 5 5 5 5 7 8 9 10 9 11 13 13 12 12 12 12 12 12 12 11 11 11 11 11 13
6 5 5 7 0 2 3 6 6 3 5 1 1 5 2 6 6 5 5 4 5 6 4 5 6 7 8 9 9 10 9 11 12 10 10 11 10 9 10 9 9 10 11 12
8 2 3 1 1 1 3 5 4 5 3 7 5 4 1 4 5 6 5 3 4 5 6 6 6 5 5 5 5 6 8 11 8 6 7 7 7 8 8 8 8 8 9 13
8 4 7 9 7 5 5 6 7 5 4 5 7 7 7 7 7 8 5 6 6 3 3 2 2 3 4 5 6 6 6 3 3 4 4 4 4 5 6 8 9 10 11 10
6 7 6 5 4 6 6 6 11 10 7 8 8 10 9 7 6 5 5 3 6 6 6 5 4 3 3 5 4 4 3 4 5 6 5 5 6 7 8 9 9 9 9 8
2 4 5 3 4 7 7 5 8 7 4 9 7 9 11 4 2 1 2 6 10 10 11 12 12 10 6 3 3 2 4 5 4 5 5 8 9 11 11 11 12 12 11 9
3 7 5 5 0 2 4 9 11 6 5 7 9 11 6 6 6 6 8 9 10 10 9 10 10 9 8 7 7 8 8 8 8 8 9 10 11 12 11 12 12 10 8 5
6 5 2 4 2 5 3 1 2 10 6 9 7 5 5 3 6 7 4 10 10 8 8 9 9 10 10 9 11 11 11 12 12 11 11 11 12 13 12 11 10 7 3 3
4 5 4 5 5 4 2 5 7 8 13 10 13 7 6 12 9 4 4 6 9 8 8 9 9 10 10 11 11 14 13 13 12 12 12 12 13 13 11 8 4 2 2 4
5 3 4 4 5 9 5 4 5 4 13 8 11 11 17 13 9 6 8 7 9 9 8 10 10 11 12 11 12 15 14 13 13 12 12 12 11 8 6 3 2 1 2 4
3 2 7 4 4 7 6 4 5 6 9 5 11 13 19 11 1 11 12 9 9 9 11 11 12 13 12 11 13 16 14 14 12 11 9 8 6 5 5 3 2 3 4 5
8 8 4 4 2 8 8 6 11 7 2 5 10 13 13 11 14 15 13 13 12 12 12 12 14 13 12 12 14 15 13 9 9 9 8 8 7 5 4 5 4 5 5 5
5 7 7 10 8 2 10 4 6 4 4 6 11 11 15 17 11 15 14 13 13 14 13 12 15 15 13 12 11 13 9 9 9 10 9 7 7 6 5 5 5 4 5 5
4 3 4 3 6 8 8 4 3 4 5 5 7 15 17 15 18 16 14 14 14 13 14 14 16 15 13 11 11 10 8 8 9 9 8 7 7 6 6 4 5 6 7 7
4 6 6 4 5 3 9 11 5 6 5 9 9 10 16 20 18 18 16 15 14 14 13 13 14 13 13 12 12 10 9 8 9 8 7 7 6 7 6 6 7 7 7 9
6 8 7 8 7 5 8 12 11 12 12 14 17 14 14 17 20 19 16 14 15 14 14 14 14 14 12 12 12 11 10 9 8 7 6 7 6 6 6 6 6 7 8 10
Wind_Direction
55 191 225 240 206 187 196 164 178 224 181 210 247 260 210 187 203 212 208 203 212 217 198 188 188 186 191 198 195 198 193 190 176 163 168 180 180 180 183 194 185 179 169 167
92 239 234 183 155 222 207 91 257 280 203 142 315 278 225 190 212 213 210 214 219 220 209 202 195 189 194 196 203 200 200 191 188 183 176 183 174 191 194 167 169 172 177 173
179 208 116 176 165 215 212 146 216 224 349 73 242 291 289 217 234 225 233 234 229 224 216 206 200 203 198 202 201 200 200 194 189 188 173 144 147 133 171 182 188 190 181 172
226 271 169 207 217 171 239 204 168 235 146 184 340 290 271 212 228 233 237 225 225 216 216 213 204 204 204 205 204 204 199 196 193 187 187 185 197 193 199 188 181 178 184 170
225 177 168 224 225 175 230 166 200 118 133 202 99 216 259 157 232 236 232 230 224 220 214 213 210 207 206 200 197 195 197 199 195 194 198 196 208 208 177 168 179 178 173 167
206 165 165 209 213 184 119 119 63 65 115 211 175 228 263 208 218 263 247 233 227 219 214 219 219 207 203 194 192 187 194 198 195 195 198 202 203 189 171 175 173 177 179 177
76 211 215 155 182 108 114 112 280 200 176 194 131 183 248 247 252 252 264 241 226 214 214 213 207 199 202 197 194 194 194 201 197 196 202 203 204 195 193 182 175 166 181 191
182 257 180 178 212 196 179 189 176 222 196 151 156 225 227 214 286 283 270 279 244 215 209 211 213 202 200 199 196 190 196 205 197 199 205 206 204 198 199 187 174 189 192 187
145 248 171 172 142 179 164 204 109 107 53 335 247 266 274 14 317 330 332 327 282 238 220 215 211 206 201 198 194 190 193 207 199 205 205 208 204 201 191 184 186 186 183 176
194 136 175 143 124 49 218 145 126 50 173 224 234 270 244 302 320 334 332 333 323 311 209 211 208 205 204 200 195 194 202 208 206 207 206 207 210 206 199 187 195 190 189 181
134 137 196 134 197 181 154 199 60 114 142 203 207 248 215 231 227 259 283 282 259 248 225 220 214 211 205 192 192 200 210 213 214 209 207 209 206 204 200 197 196 188 180 181
190 151 183 195 128 199 181 178 159 156 193 162 176 260 263 251 261 263 257 239 231 243 235 207 218 207 199 205 206 209 207 212 219 210 202 210 204 199 200 199 186 177 177 176
176 183 157 275 61 359 205 189 143 111 91 187 173 244 217 289 283 260 271 257 238 210 208 201 205 219 229 219 219 212 214 223 226 187 211 214 210 196 194 188 172 171 168 175
125 137 170 217 217 161 193 194 180 160 156 180 217 251 266 283 281 287 278 284 283 241 196 201 194 219 210 222 225 223 232 184 150 148 176 185 187 194 178 170 171 173 170 158
139 193 179 224 217 187 198 185 180 197 208 198 241 213 249 251 254 269 305 355 63 73 96 117 162 186 207 234 236 239 219 167 171 162 153 141 143 142 140 125 105 103 91 98
186 190 156 203 139 191 217 209 190 214 209 242 238 246 231 229 208 178 140 116 100 94 86 78 77 79 62 346 306 38 74 89 111 107 109 122 123 107 99 97 97 95 96 104
174 140 130 223 90 170 318 209 192 197 199 197 212 234 160 195 192 160 140 121 111 102 90 84 79 72 67 66 78 91 98 105 103 106 113 110 107 100 98 103 103 103 104 120
159 140 62 152 128 226 223 90 207 223 239 220 256 235 208 166 111 101 108 130 117 103 93 78 79 77 66 72 80 88 88 91 94 97 103 106 107 107 108 99 98 101 108 151
174 135 121 155 199 293 218 196 179 183 253 216 226 201 151 135 119 84 60 90 112 106 89 82 79 83 86 82 86 88 86 91 95 99 103 110 113 111 107 104 109 142 226 242
93 51 161 159 171 215 203 211 148 120 276 208 192 173 158 163 168 167 156 131 108 97 97 101 97 94 85 80 91 92 90 90 90 98 105 108 107 110 114 107 114 223 261 287
117 53 179 154 210 283 241 155 139 166 256 196 190 170 164 180 142 130 135 116 104 110 111 107 95 89 90 97 98 91 93 93 100 99 92 83 68 69 64 65 38 349 332 316
165 161 178 112 123 261 152 102 176 206 185 189 177 171 156 125 126 128 129 127 128 124 113 103 99 94 92 94 94 94 89 90 88 85 78 68 59 50 42 29 12 355 344 326
240 190 186 189 200 207 201 198 183 158 166 196 170 159 141 137 144 139 136 136 132 121 112 109 105 98 86 86 93 95 87 87 84 77 69 62 60 49 39 26 10 350 342 329
247 176 205 130 206 214 214 220 214 185 209 181 171 151 151 145 147 140 138 136 129 126 121 116 108 100 92 83 76 74 76 85 85 81 70 58 53 35 30 23 17 2 356 345
186 140 184 271 269 339 257 231 195 174 148 127 117 147 146 139 143 142 139 136 131 125 120 115 109 103 93 84 74 65 67 82 84 76 61 47 36 23 15 20 12 5 4 358
188 174 180 211 203 198 238 197 169 166 174 161 138 132 144 145 143 141 134 131 129 124 120 111 106 101 96 86 76 65 60 62 68 62 45 33 25 19 14 5 353 32 4 357